Change the Weather History Date:

Saturday, January 11, 2014

  Actual Average (KBNO) Record (KBNO)
Temperature  
Mean Temperature 44 °F 24 °F  
Max Temperature 50 °F 34 °F 51 °F (1959)
Min Temperature 37 °F 15 °F -10 °F (1949)
Degree Days  
Heating Degree Days 22 41  
Month to date heating degree days 451  
Since 1 July heating degree days 3718  
Cooling Degree Days 0 0  
Month to date cooling degree days 0  
Year to date cooling degree days 0  
Moisture  
Dew Point 32 °F    
Average Humidity 63    
Maximum Humidity 87    
Minimum Humidity 44    
Precipitation  
Precipitation 0.00 in 0.04 in 0.87 in (1979)
Month to date precipitation 0.48  
Year to date precipitation 0.48  
Sea Level Pressure  
Sea Level Pressure 29.76 in    
Wind  
Wind Speed 16 mph (SW)    
Max Wind Speed 30 mph    
Max Gust Speed 44 mph    
Visibility 10 miles    
Events Rain    
T = Trace of Precipitation, MM = Missing Value Source: NWS Daily Summary

Daily Weather History Graph

Daily Weather History Graph

Search for Another Location

Airport or City:

Trip Planner

Search our weather history database for the weather conditions in past years. The results will help you decide how hot, cold, wet, or windy it might be!

Date:

Astronomy

Jan. 11, 2014 Rise Set
Actual Time 7:30 AM PST 4:37 PM PST
Civil Twilight 6:57 AM PST 5:10 PM PST
Nautical Twilight 6:21 AM PST 5:46 PM PST
Astronomical Twilight 5:46 AM PST 6:21 PM PST
Moon 1:26 PM PST (1/11) 3:37 AM PST (1/11)
Length of Visible Light 10h 12m
Length of Day
9h 07m
Waxing Gibbous, 84% of the Moon is Illuminated
Jan 11
Waxing Gibbous
Jan 15
Full
Jan 23
Last Quarter
Jan 30
New
Feb 6
First Quarter

Hourly Weather History & Observations

Time (PST) Temp. Windchill Dew Point Humidity Pressure Visibility Wind Dir Wind Speed Gust Speed Precip Events Conditions
12:15 AM 46.6 °F - 35.1 °F 64% 29.96 in 10.0 mi SW 6.9 mph - N/A   Overcast
12:35 AM 46.4 °F 40.4 °F 35.6 °F 66% 29.94 in 10.0 mi South 13.8 mph 17.3 mph N/A   Mostly Cloudy
12:55 AM 46.8 °F - 35.8 °F 66% 29.92 in 10.0 mi South 13.8 mph 19.6 mph N/A   Scattered Clouds
1:15 AM 47.8 °F - 36.5 °F 65% 29.91 in 10.0 mi South 20.7 mph 29.9 mph N/A   Clear
1:35 AM 48.6 °F - 36.5 °F 63% 29.90 in 10.0 mi South 13.8 mph 23.0 mph N/A   Clear
1:55 AM 48.2 °F - 36.5 °F 64% 29.89 in 10.0 mi SSW 12.7 mph 20.7 mph N/A   Clear
2:15 AM 49.1 °F - 36.5 °F 62% 29.88 in 10.0 mi SSW 13.8 mph 27.6 mph N/A   Clear
2:35 AM 48.9 °F - 36.5 °F 62% 29.87 in 10.0 mi South 16.1 mph 26.5 mph N/A   Clear
2:55 AM 48.9 °F - 36.3 °F 62% 29.87 in 10.0 mi SSW 11.5 mph 19.6 mph N/A   Mostly Cloudy
3:15 AM 47.7 °F - 36.3 °F 65% 29.85 in 10.0 mi South 10.4 mph 24.2 mph N/A   Scattered Clouds
3:35 AM 48.2 °F - 36.5 °F 64% 29.82 in 10.0 mi South 24.2 mph 28.8 mph N/A   Clear
3:55 AM 48.2 °F - 36.0 °F 63% 29.81 in 10.0 mi South 26.5 mph 43.7 mph N/A   Clear
4:15 AM 48.9 °F - 36.1 °F 61% 29.79 in 10.0 mi South 28.8 mph 40.3 mph N/A   Mostly Cloudy
4:35 AM 50.0 °F - 36.3 °F 59% 29.77 in 10.0 mi South 24.2 mph 38.0 mph N/A   Mostly Cloudy
4:55 AM 50.5 °F - 36.5 °F 59% 29.76 in 10.0 mi South 25.3 mph 34.5 mph N/A   Mostly Cloudy
5:15 AM 50.2 °F - 36.5 °F 59% 29.75 in 10.0 mi SSE 18.4 mph 27.6 mph N/A   Overcast
5:35 AM 50.0 °F - 36.1 °F 59% 29.75 in 10.0 mi SSW 6.9 mph 23.0 mph N/A   Overcast
5:55 AM 49.3 °F - 35.8 °F 60% 29.73 in 10.0 mi South 8.1 mph 19.6 mph N/A   Mostly Cloudy
6:15 AM 49.1 °F - 36.1 °F 61% 29.71 in 10.0 mi WSW 11.5 mph 21.9 mph N/A   Mostly Cloudy
6:35 AM 48.2 °F - 36.0 °F 63% 29.70 in 10.0 mi North 3.5 mph - N/A   Overcast
6:55 AM 48.2 °F - 36.1 °F 63% 29.70 in 10.0 mi SW 6.9 mph - N/A   Overcast
7:15 AM 48.2 °F - 36.3 °F 63% 29.70 in 10.0 mi NW 3.5 mph - N/A   Overcast
7:35 AM 48.9 °F - 36.9 °F 63% 29.71 in 10.0 mi SW 9.2 mph 19.6 mph N/A   Overcast
7:55 AM 48.9 °F - 36.7 °F 63% 29.71 in 10.0 mi SW 10.4 mph 17.3 mph N/A   Overcast
8:15 AM 48.4 °F - 37.0 °F 65% 29.72 in 10.0 mi SW 10.4 mph - N/A   Light Drizzle
8:35 AM 48.2 °F - 37.4 °F 66% 29.71 in 10.0 mi SSW 13.8 mph 18.4 mph N/A   Overcast
8:55 AM 48.6 °F - 36.1 °F 62% 29.71 in 10.0 mi SW 16.1 mph 26.5 mph N/A   Mostly Cloudy
9:15 AM 49.1 °F - 35.6 °F 60% 29.70 in 10.0 mi SSW 13.8 mph 20.7 mph N/A   Light Drizzle
9:35 AM 48.2 °F - 36.0 °F 63% 29.70 in 10.0 mi SW 23.0 mph 35.7 mph N/A   Light Drizzle
9:55 AM 49.3 °F - 34.2 °F 56% 29.71 in 10.0 mi SW 23.0 mph 40.3 mph N/A   Light Drizzle
10:15 AM 46.8 °F - 35.8 °F 66% 29.71 in 7.0 mi SW 29.9 mph 38.0 mph N/A   Drizzle
10:35 AM 45.0 °F 37.4 °F 37.2 °F 74% 29.72 in 7.0 mi WSW 18.4 mph 31.1 mph N/A   Light Drizzle
10:55 AM 47.8 °F - 37.6 °F 68% 29.72 in 10.0 mi WSW 27.6 mph 35.7 mph N/A   Overcast
11:15 AM 43.3 °F 35.8 °F 38.3 °F 82% 29.73 in 5.0 mi West 16.1 mph 31.1 mph N/A Rain Rain
11:35 AM 42.3 °F 35.5 °F 38.7 °F 87% 29.73 in 10.0 mi West 12.7 mph 18.4 mph N/A   Drizzle
11:55 AM 43.2 °F 35.3 °F 39.0 °F 85% 29.73 in 7.0 mi West 17.3 mph 25.3 mph N/A   Light Drizzle
12:15 PM 45.5 °F 37.3 °F 35.8 °F 69% 29.73 in 10.0 mi West 21.9 mph 28.8 mph N/A   Scattered Clouds
12:35 PM 45.7 °F 37.8 °F 31.8 °F 58% 29.72 in 10.0 mi West 20.7 mph 34.5 mph N/A   Scattered Clouds
12:55 PM 46.8 °F - 30.6 °F 53% 29.71 in 10.0 mi West 17.3 mph 27.6 mph N/A   Mostly Cloudy
1:15 PM 48.2 °F - 29.8 °F 49% 29.70 in 10.0 mi West 16.1 mph 25.3 mph N/A   Overcast
1:35 PM 48.6 °F - 28.2 °F 45% 29.69 in 10.0 mi West 15.0 mph 26.5 mph N/A   Overcast
1:55 PM 48.2 °F - 27.0 °F 44% 29.69 in 10.0 mi West 15.0 mph 26.5 mph N/A   Overcast
2:15 PM 45.5 °F 36.7 °F 25.2 °F 45% 29.70 in 10.0 mi WSW 25.3 mph 29.9 mph N/A   Overcast
2:35 PM 44.2 °F 35.9 °F 25.9 °F 49% 29.69 in 10.0 mi WSW 20.7 mph 29.9 mph N/A   Overcast
2:55 PM 42.3 °F 33.8 °F 28.6 °F 58% 29.69 in 10.0 mi West 18.4 mph 23.0 mph N/A Rain Light Rain
3:15 PM 39.0 °F 29.3 °F 32.0 °F 76% 29.70 in 7.0 mi WSW 19.6 mph 35.7 mph N/A Rain Light Rain
3:35 PM 37.9 °F 33.5 °F 33.4 °F 84% 29.71 in 10.0 mi NW 5.8 mph - N/A   Mostly Cloudy
3:55 PM 40.3 °F 37.1 °F 31.1 °F 70% 29.71 in 10.0 mi West 4.6 mph 18.4 mph N/A   Overcast
4:15 PM 39.7 °F 35.6 °F 32.0 °F 74% 29.72 in 10.0 mi SW 5.8 mph - N/A   Overcast
4:35 PM 40.1 °F 33.6 °F 29.8 °F 67% 29.70 in 10.0 mi WSW 10.4 mph - N/A   Overcast
4:55 PM 39.4 °F 30.4 °F 28.8 °F 66% 29.70 in 10.0 mi WSW 17.3 mph 23.0 mph N/A   Mostly Cloudy
5:15 PM 40.3 °F 29.9 °F 27.5 °F 60% 29.70 in 10.0 mi WSW 24.2 mph 29.9 mph N/A   Scattered Clouds
5:35 PM 40.3 °F 30.2 °F 26.8 °F 59% 29.69 in 10.0 mi WSW 23.0 mph 36.8 mph N/A   Scattered Clouds
5:55 PM 39.9 °F 29.2 °F 25.5 °F 56% 29.69 in 10.0 mi SW 25.3 mph 39.1 mph N/A   Mostly Cloudy
6:15 PM 39.6 °F 29.5 °F 24.8 °F 56% 29.71 in 10.0 mi WSW 21.9 mph 31.1 mph N/A   Mostly Cloudy
6:35 PM 39.4 °F 28.3 °F 24.6 °F 56% 29.71 in 10.0 mi WSW 26.5 mph 42.6 mph N/A   Mostly Cloudy
6:55 PM 37.9 °F 28.2 °F 26.1 °F 62% 29.72 in 10.0 mi West 18.4 mph 27.6 mph N/A   Mostly Cloudy
7:15 PM 38.3 °F 29.0 °F 25.9 °F 61% 29.73 in 10.0 mi WSW 17.3 mph 31.1 mph N/A   Overcast
7:35 PM 38.5 °F 29.6 °F 26.2 °F 61% 29.74 in 10.0 mi WSW 16.1 mph 24.2 mph N/A   Overcast
7:55 PM 38.8 °F 31.6 °F 25.9 °F 60% 29.75 in 10.0 mi West 11.5 mph 27.6 mph N/A   Overcast
8:15 PM 38.5 °F 28.9 °F 26.8 °F 63% 29.76 in 10.0 mi WSW 18.4 mph 29.9 mph N/A   Overcast
8:35 PM 37.9 °F 27.1 °F 27.1 °F 65% 29.76 in 10.0 mi WSW 23.0 mph 31.1 mph N/A   Overcast
8:55 PM 38.5 °F 27.5 °F 26.1 °F 61% 29.76 in 10.0 mi SW 24.2 mph 33.4 mph N/A   Overcast
9:15 PM 38.8 °F 28.5 °F 25.5 °F 59% 29.77 in 10.0 mi WSW 21.9 mph 29.9 mph N/A   Overcast
9:35 PM 38.7 °F 29.8 °F 25.7 °F 60% 29.79 in 10.0 mi WSW 16.1 mph 25.3 mph N/A   Overcast
9:55 PM 37.9 °F 28.5 °F 27.1 °F 65% 29.81 in 10.0 mi West 17.3 mph 27.6 mph N/A   Overcast
10:15 PM 38.7 °F 27.8 °F 24.8 °F 58% 29.81 in 10.0 mi WSW 24.2 mph 29.9 mph N/A   Overcast
10:35 PM 37.8 °F 27.7 °F 26.8 °F 65% 29.82 in 10.0 mi West 19.6 mph 27.6 mph N/A   Overcast
10:55 PM 37.6 °F 28.4 °F 26.4 °F 64% 29.83 in 10.0 mi West 16.1 mph 23.0 mph N/A   Overcast
11:15 PM 37.4 °F 27.5 °F 25.5 °F 62% 29.83 in 10.0 mi West 18.4 mph 23.0 mph N/A   Overcast
11:35 PM 37.4 °F 27.8 °F 25.5 °F 62% 29.84 in 10.0 mi West 17.3 mph 23.0 mph N/A   Overcast
11:55 PM 37.4 °F 26.6 °F 25.0 °F 61% 29.85 in 10.0 mi West 21.9 mph 28.8 mph N/A   Overcast